Starlink 32680

operational
NORAD ID: 62423 Int'l Des: 2024-249 Owner: SPXS Country: US Constellation: starlink
LEOCIRCULAR

关于 Starlink 32680

正在加载描述...

实时位置

正在加载3D地球...

即将过境

高度历史

Altitude vs Time

uPlot chart will show altitude changes over time

两行轨道根数

1 62423U 24249Q 25350.20396491 .00020338 00000-0 74578-3 0 9997
2 62423 43.0024 65.7232 0000586 251.4401 108.6387 15.27613944 55042
Epoch: Dec 16, 2025 • Age: 23 hours

当前状态

高度 486.0 km
速度 7.62 km/s
星下点 -16.69°S, 116.61°E
发射日期 Dec 23, 2024
运行时间 0.9 years
类型 internet

技术详情

分类 Payload
质量 730.00 kg
干质量 700.00 kg
总质量 730.00 kg
长度 0.30 m
直径 4.10 m
跨度 29.00 m
形状 Box + pan
制造商 SPXS
平台类型 Starlink V2M
阶段状态 In Orbit
所有者/国家 SPXS/US

大型星座

Loading constellations...